This is the latest recevied weather packets stored in our database for station/object N5GMJ. If no packets are shown the sender has not sent any weather packets the latest 10 day(s).
| Time | Temp. | Humidity | Pressure | Rain* | Wind** | Luminosity | Snow |
|---|---|---|---|---|---|---|---|
| 1787681702 | 36.11° C | 36% | 1016.5 hPa | 0 mm | - | - | - |
| 1787681396 | 36.11° C | 37% | 1016.6 hPa | 0 mm | - | - | - |
| 1787681091 | 35.56° C | 38% | 1016.5 hPa | 0 mm | - | - | - |
| 1787680792 | 35.56° C | 38% | 1016.7 hPa | 0 mm | - | - | - |
| 1787680487 | 35.56° C | 39% | 1016.8 hPa | 0 mm | - | - | - |
| 1787680185 | 36.11° C | 38% | 1016.8 hPa | 0 mm | - | - | - |
| 1787679880 | 36.67° C | 38% | 1016.8 hPa | 0 mm | - | - | - |
| 1787679579 | 36.11° C | 38% | 1016.9 hPa | 0 mm | - | - | - |
| 1787679276 | 35.56° C | 39% | 1016.8 hPa | 0 mm | - | - | - |
| 1787678971 | 35.56° C | 40% | 1017.2 hPa | 0 mm | - | - | - |
| 1787678670 | 37.78° C | 37% | 1017.1 hPa | 0 mm | - | - | - |
| 1787678366 | 37.78° C | 37% | 1017.3 hPa | 0 mm | - | - | - |
| 1787678061 | 37.22° C | 37% | 1017.5 hPa | 0 mm | - | - | - |
| 1787677761 | 36.67° C | 37% | 1017.4 hPa | 0 mm | - | - | - |
| 1787677455 | 36.67° C | 39% | 1017.7 hPa | 0 mm | - | - | - |
| 1787677154 | 36.67° C | 38% | 1017.8 hPa | 0 mm | - | - | - |
| 1787676850 | 36.11° C | 40% | 1017.9 hPa | 0 mm | - | - | - |
| 1787676550 | 35° C | 41% | 1018.1 hPa | 0 mm | - | - | - |
| 1787676247 | 35.56° C | 41% | 1017.9 hPa | 0 mm | - | - | - |
| 1787675947 | 35° C | 42% | 1018.1 hPa | 0 mm | - | - | - |
| 1787675644 | 35° C | 41% | 1018.2 hPa | 0 mm | - | - | - |
| 1787675342 | 35° C | 42% | 1018.3 hPa | 0 mm | - | - | - |
| 1787674737 | 34.44° C | 43% | 1018.3 hPa | 0 mm | - | - | - |
| 1787674433 | 33.33° C | 43% | 1018.2 hPa | 0 mm | - | - | - |
| 1787674133 | 33.89° C | 43% | 1018.4 hPa | 0 mm | - | - | - |
* Rain latest hour (hover to see other rain measurements)
** Current wind speed in m/s (hover to see current wind gust speed)